GPS BIIF-2 (37753 NORAD) Tracking and Keplerian Element Data

This shows tracking and keplerian element data for the satellite.

Feedback or suggestion? Click here.




ElementValue
Catalog37753
NameGPS BIIF-2
Epoch Orbit5128
Epoch Day198.65167303
Epoch Year2018
RAAN85.0187
Inclination55.6831
Eccentricity0.0078561
Argument of Perigee36.5687
Mean Anonmoly16.1067
Mean Motion2.00564418
Decay Rate-6E-07
L11 37753U 11036A 18198.65167303 -.00000060 00000-0 00000-0 0 9991
L22 37753 55.6831 85.0187 0078561 36.5687 16.1067 2.00564418 51283

Live tracking and technical data element details for GPS BIIF-2 (NORAD 37753). GPS BIIF-2 can be tracked NOW for your location showing map with azimuth and elevation plus other details from your city location.

Track the satellite on the map from your city or location and see movement details for azimuth, elevation, latitude, longitude, range, height, and movement on the map or in text.







IsCatalogInMostPopularTable: catalog: 37753, numindb: 35
Update: records affected: 1



GetName: 37753 GPS BIIF-2

Hit Count: updated at: Fri, 20 Jul 2018 20:33:03 GMT